Sparta, TN

2:52 PM CST on December 06, 2019 (GMT -0600)
Upper Cumberland Regional

Weather History for KSRB - November, 2019

Change the Weather History Date:

Saturday, November 16, 2019

  Actual Average (WUND) Record (WUND)
Temperature  
Mean Temperature 38 °F -  
Max Temperature 53 °F - - (-1)
Min Temperature 23 °F - - (-1)
Degree Days  
Heating Degree Days 27    
Moisture  
Dew Point 27 °F    
Average Humidity 73    
Maximum Humidity 100    
Minimum Humidity 38    
Precipitation  
Precipitation 0.00 in - - ()
Sea Level Pressure  
Sea Level Pressure 30.16 in    
Wind  
Wind Speed 4 mph ()    
Max Wind Speed 10 mph    
Max Gust Speed 17 mph    
Visibility 9.6 miles    
Events      
Averages and records for this station are not official NWS values.
T = Trace of Precipitation, MM = Missing Value Source: Averaged Metar Reports

Daily Weather History Graph

Daily Weather History Graph

Search for Another Location

Airport or City:

Astronomy

Nov. 16, 2019 Rise Set
Actual Time 6:19 AM CST 4:33 PM CST
Civil Twilight 5:52 AM CST 5:01 PM CST
Nautical Twilight 5:21 AM CST 5:32 PM CST
Astronomical Twilight 4:50 AM CST 6:02 PM CST
Moon 8:09 PM CST (11/16) 10:09 AM CST (11/16)
Length of Visible Light 11h 09m
Length of Day
10h 14m
Waning Gibbous, 82% of the Moon is Illuminated
Nov 16
Waning Gibbous
Nov 19
Last Quarter
Nov 26
New
Dec 4
First Quarter
Dec 11
Full

Hourly Weather History & Observations

Time (CST) Temp. Windchill Dew Point Humidity Pressure Visibility Wind Dir Wind Speed Gust Speed Precip Events Conditions
12:15 AM 28.4 °F - 26.6 °F 93% 30.19 in 10.0 mi Calm Calm - N/A   Clear
12:35 AM 28.4 °F 23.3 °F 26.6 °F 93% 30.20 in 10.0 mi Variable 4.6 mph - N/A   Clear
12:55 AM 28.4 °F - 26.6 °F 93% 30.20 in 10.0 mi Calm Calm - N/A   Clear
1:15 AM 30.2 °F 25.4 °F 26.6 °F 86% 30.19 in 10.0 mi NNE 4.6 mph - N/A   Clear
1:35 AM 28.4 °F 23.3 °F 26.6 °F 93% 30.20 in 10.0 mi North 4.6 mph - N/A   Clear
1:55 AM 28.4 °F - 24.8 °F 86% 30.19 in 10.0 mi Calm Calm - N/A   Clear
2:15 AM 30.2 °F 24.3 °F 26.6 °F 86% 30.18 in 10.0 mi North 5.8 mph - N/A   Clear
2:55 AM 28.4 °F - 26.6 °F 93% 30.17 in 10.0 mi Calm Calm - N/A   Clear
3:15 AM 28.4 °F - 26.6 °F 93% 30.18 in 10.0 mi Calm Calm - N/A   Clear
3:35 AM 26.6 °F 22.6 °F 24.8 °F 93% 30.18 in 10.0 mi North 3.5 mph - N/A   Clear
3:55 AM 28.4 °F 23.3 °F 24.8 °F 86% 30.19 in 10.0 mi NNW 4.6 mph - N/A   Clear
4:15 AM 26.6 °F - 24.8 °F 93% 30.19 in 9.0 mi Calm Calm - N/A   Clear
4:35 AM 24.8 °F 19.1 °F 24.8 °F 100% 30.19 in 8.0 mi North 4.6 mph - N/A   Clear
4:55 AM 26.6 °F 22.6 °F 24.8 °F 93% 30.19 in 8.0 mi North 3.5 mph - N/A   Clear
5:15 AM 24.8 °F 17.9 °F 24.8 °F 100% 30.20 in 7.0 mi NW 5.8 mph - N/A   Clear
5:55 AM 24.8 °F 20.5 °F 23.0 °F 93% 30.20 in 6.0 mi NNW 3.5 mph - N/A   Clear
6:15 AM 26.6 °F 22.6 °F 24.8 °F 93% 30.21 in 7.0 mi NNW 3.5 mph - N/A   Clear
6:35 AM 26.6 °F 21.2 °F 24.8 °F 93% 30.22 in 7.0 mi NNW 4.6 mph - N/A   Clear
6:55 AM 28.4 °F 23.3 °F 24.8 °F 86% 30.22 in 9.0 mi Variable 4.6 mph - N/A   Clear
7:15 AM 30.2 °F 25.4 °F 26.6 °F 86% 30.22 in 9.0 mi NNW 4.6 mph - N/A   Clear
7:35 AM 32.0 °F 26.4 °F 26.6 °F 80% 30.22 in 9.0 mi North 5.8 mph - N/A   Clear
7:55 AM 33.8 °F 28.6 °F 28.4 °F 81% 30.22 in 10.0 mi North 5.8 mph - N/A   Clear
8:15 AM 35.6 °F 30.7 °F 28.4 °F 75% 30.23 in 10.0 mi North 5.8 mph - N/A   Clear
8:35 AM 37.4 °F 32.1 °F 28.4 °F 70% 30.23 in 10.0 mi North 6.9 mph - N/A   Clear
8:55 AM 39.2 °F 33.0 °F 28.4 °F 65% 30.22 in 10.0 mi NNE 9.2 mph - N/A   Clear
9:15 AM 41.0 °F 34.7 °F 28.4 °F 61% 30.21 in 10.0 mi NNE 10.4 mph - N/A   Clear
9:35 AM 42.8 °F 38.0 °F 28.4 °F 57% 30.21 in 10.0 mi NNE 8.1 mph 15.0 mph N/A   Clear
9:55 AM 44.6 °F 41.4 °F 28.4 °F 53% 30.20 in 10.0 mi Variable 5.8 mph - N/A   Clear
10:15 AM 46.4 °F 42.9 °F 28.4 °F 50% 30.20 in 10.0 mi Variable 6.9 mph - N/A   Clear
10:35 AM 46.4 °F 42.4 °F 26.6 °F 46% 30.19 in 10.0 mi North 8.1 mph 16.1 mph N/A   Clear
10:55 AM 48.2 °F - 28.4 °F 46% 30.18 in 10.0 mi North 8.1 mph 16.1 mph N/A   Clear
11:15 AM 50.0 °F - 28.4 °F 43% 30.17 in 10.0 mi North 9.2 mph 17.3 mph N/A   Clear
11:35 AM 50.0 °F - 28.4 °F 43% 30.16 in 10.0 mi North 10.4 mph - N/A   Clear
11:55 AM 50.0 °F - 28.4 °F 43% 30.15 in 10.0 mi North 8.1 mph 15.0 mph N/A   Clear
12:15 PM 51.8 °F - 28.4 °F 41% 30.14 in 10.0 mi North 10.4 mph - N/A   Clear
12:35 PM 51.8 °F - 28.4 °F 41% 30.13 in 10.0 mi North 9.2 mph - N/A   Clear
12:55 PM 53.6 °F - 30.2 °F 41% 30.12 in 10.0 mi Variable 6.9 mph - N/A   Clear
1:15 PM 53.6 °F - 30.2 °F 41% 30.11 in 10.0 mi North 10.4 mph - N/A   Clear
1:35 PM 53.6 °F - 28.4 °F 38% 30.11 in 10.0 mi NNE 5.8 mph - N/A   Clear
1:55 PM 53.6 °F - 28.4 °F 38% 30.11 in 10.0 mi North 8.1 mph 15.0 mph N/A   Clear
2:15 PM 53.6 °F - 28.4 °F 38% 30.11 in 10.0 mi NNE 9.2 mph 15.0 mph N/A   Clear
2:35 PM 53.6 °F - 30.2 °F 41% 30.10 in 10.0 mi North 5.8 mph - N/A   Clear
2:55 PM 53.6 °F - 30.2 °F 41% 30.10 in 10.0 mi Variable 5.8 mph - N/A   Clear
3:15 PM 51.8 °F - 30.2 °F 44% 30.10 in 10.0 mi NNE 6.9 mph 13.8 mph N/A   Clear
3:35 PM 51.8 °F - 30.2 °F 44% 30.11 in 10.0 mi Variable 4.6 mph 12.7 mph N/A   Clear
4:15 PM 48.2 °F - 30.2 °F 50% 30.11 in 10.0 mi Variable 5.8 mph - N/A   Clear
4:35 PM 48.2 °F - 30.2 °F 50% 30.12 in 10.0 mi Calm Calm - N/A   Clear
4:55 PM 46.4 °F 43.5 °F 30.2 °F 53% 30.12 in 10.0 mi NNE 5.8 mph - N/A   Clear
5:15 PM 44.6 °F 42.2 °F 30.2 °F 57% 30.12 in 10.0 mi NNE 4.6 mph - N/A   Clear
5:35 PM 41.0 °F 38.0 °F 30.2 °F 65% 30.12 in 10.0 mi NNE 4.6 mph - N/A   Clear
5:55 PM 41.0 °F 39.0 °F 30.2 °F 65% 30.13 in 10.0 mi NNW 3.5 mph - N/A   Clear
6:15 PM 33.8 °F - 30.2 °F 87% 30.14 in 10.0 mi Calm Calm - N/A   Clear
6:35 PM 32.0 °F - 28.4 °F 87% 30.14 in 10.0 mi Calm Calm - N/A   Clear
6:55 PM 30.2 °F - 26.6 °F 86% 30.13 in 10.0 mi Calm Calm - N/A   Clear
7:15 PM 30.2 °F - 26.6 °F 86% 30.13 in 10.0 mi Calm Calm - N/A   Clear
7:55 PM 30.2 °F - 26.6 °F 86% 30.12 in 10.0 mi Calm Calm - N/A   Clear
8:15 PM 32.0 °F - 28.4 °F 87% 30.12 in 10.0 mi Calm Calm - N/A   Clear
8:35 PM 32.0 °F - 28.4 °F 87% 30.12 in 10.0 mi Calm Calm - N/A   Clear
8:55 PM 28.4 °F - 24.8 °F 86% 30.12 in 10.0 mi Calm Calm - N/A   Clear
9:15 PM 26.6 °F - 24.8 °F 93% 30.12 in 10.0 mi Calm Calm - N/A   Clear
9:35 PM 26.6 °F - 24.8 °F 93% 30.11 in 10.0 mi Calm Calm - N/A   Clear
9:55 PM 26.6 °F - 24.8 °F 93% 30.11 in 10.0 mi Calm Calm - N/A   Clear
10:15 PM 24.8 °F - 23.0 °F 93% 30.11 in 10.0 mi Calm Calm - N/A   Clear
10:35 PM 24.8 °F - 23.0 °F 93% 30.10 in 10.0 mi Calm Calm - N/A   Clear
10:55 PM 24.8 °F - 23.0 °F 93% 30.10 in 8.0 mi Calm Calm - N/A   Clear
11:15 PM 23.0 °F - 23.0 °F 100% 30.10 in 9.0 mi Calm Calm - N/A   Clear
11:35 PM 23.0 °F - 21.2 °F 93% 30.10 in 8.0 mi Calm Calm - N/A   Clear
11:55 PM 23.0 °F - 21.2 °F 93% 30.09 in 9.0 mi Calm Calm - N/A   Clear